Погода в Елизаветине

Россия / Саратовская область     51°50′02″N   44°49′59″E
темп.,
°C
ветер,
м/с
пор.,
м/с
влажн.,
%
обл.,
%
осадки,
мм/ч
давл.,
гПа
погр.,
м
14 мая, пт
пт1401:00+15в1184100 0.0 101811
04:00+14вюв1184100 0.0 101811
07:00+16юв1179100 0.0 101827
10:00+22юв23612 0.0 1018455
13:00+26ююв45475 0.0 10181214
16:00+26юв6752100 0.0 10171521
19:00+23юв41066100 0.0 1016303
22:00+19вюв3372100 0.0 101629
15 мая, сб
сб1501:00+18ююв5166372 0.0 1016325
04:00+16ююв414575 0.0 1017229
07:00+16ююв415609 0.0 1017295
10:00+23ююв61346100 0.0 1017580
13:00+26ююв711385 0.0 1017994
16:00+27ююв6124137 0.0 10161621
19:00+23ююв4115599 0.0 1015260
22:00+18юв412545 0.0 1015183
16 мая, вс
вс1601:00+17ююв475124 0.0 101582
04:00+15ю34566 0.0 101653
07:00+17ю356057 0.0 1016109
10:00+22ююв5946100 0.0 1017471
13:00+26ю5837100 0.0 10171085
16:00+27ю583899 0.0 10161474
19:00+25юв225499 0.0 101514
22:00+19в335979 0.0 101524
17 мая, пн
пн1701:00+18ююв345235 0.0 101643
04:00+18юв3347100 0.0 101619
07:00+17вюв3958100 0.0 1016158
10:00+23юв61142100 0.0 1016469
13:00+26юв6937100 0.0 1016687
16:00+27юв61041100 0.0 10151166
19:00+24вюв475790 0.0 1014125
22:00+19вюв41052100 0.0 1015150
18 мая, вт
вт1801:00+17вюв41249100 0.0 1014162
04:00+16юв355092 0.0 101463
07:00+17вюв3961100 0.0 1014172
10:00+23вюв51044100 0.0 1013383
13:00+26юв7104099 0.0 1013739
16:00+28ююв6114027 0.0 10121603
19:00+25вюв4105371 0.0 1011232
22:00+21юв6164345 0.0 1011292